Location: Newark
(23.3970°S, 47.6010°W)
Time: 09:15:01
(UTC+00:00)

A-11 Canister half - Visible Passes

Search period start: 17 February 2020 00:00
Search period end: 27 February 2020 00:00
Orbit: 1525 x 1684 km, 47.3° (Epoch: 17 February)

Date Brightness Start Highest point End Pass type
(mag) Time Alt. Az. Time Alt. Az. Time Alt. Az.
17 Feb 10.4 01:02:42 10° NW 01:21:52 14° SE 01:22:51 10° SE visible
17 Feb 10.4 03:20:06 29° SSW 03:20:06 29° SSW 03:27:28 10° SSE visible
17 Feb 11.1 05:21:25 10° SW 05:27:33 17° S 05:33:41 10° SE visible
17 Feb 10.9 07:28:14 10° SSW 07:36:30 27° SSE 07:44:36 10° E visible
17 Feb 10.1 22:40:27 10° NNE 22:46:43 19° NE 22:49:13 17° ENE visible
18 Feb 9.4 00:41:05 10° NW 01:00:15 13° SE 01:01:10 10° SE visible
18 Feb 10.4 02:58:26 30° SSW 02:58:26 30° SSW 03:05:49 10° SSE visible
18 Feb 11.1 04:59:32 10° SW 05:05:41 17° S 05:11:51 10° SE visible
18 Feb 10.9 07:06:34 10° SSW 07:14:43 26° SSE 07:22:41 10° ESE visible
18 Feb 10.2 22:19:20 10° NNE 22:25:06 17° ENE 22:30:59 10° E visible
19 Feb 8.9 00:19:28 10° NW 00:29:17 82° NE 00:39:27 10° SE visible
19 Feb 10.3 02:26:33 10° W 02:35:43 33° SSW 02:44:10 10° SSE visible
19 Feb 11.1 04:37:37 10° SW 04:43:49 17° S 04:50:02 10° SE visible
19 Feb 10.9 06:44:54 10° SSW 06:52:55 25° SSE 07:00:47 10° ESE visible
19 Feb 8.9 23:57:52 10° NW 00:07:38 78° NE 00:17:45 10° SE visible
20 Feb 10.3 02:04:42 10° W 02:13:29 34° SSW 02:22:30 10° SSE visible
20 Feb 11.1 04:15:43 10° SW 04:21:57 17° S 04:28:13 10° SSE visible
20 Feb 10.9 06:23:13 10° SSW 06:31:06 24° SSE 06:38:51 10° ESE visible
20 Feb 9.6 08:27:48 10° SW 08:37:57 67° SE 08:47:44 10° ENE visible
20 Feb 8.9 23:36:17 10° NW 23:45:59 74° NE 23:56:03 10° SE visible
21 Feb 10.2 01:42:52 10° W 01:51:44 36° SSW 02:00:51 10° SSE visible
21 Feb 11.1 03:53:48 10° SW 04:00:05 18° S 04:06:25 10° SSE visible
21 Feb 10.9 06:01:33 10° SSW 06:09:16 23° SSE 06:16:55 10° ESE visible
21 Feb 9.6 08:06:08 10° SW 08:16:15 64° SE 08:26:03 10° ENE visible
21 Feb 9.0 23:14:42 10° NNW 23:24:20 70° NE 23:34:20 10° SE visible
22 Feb 10.2 01:21:01 10° W 01:29:58 37° SSW 01:39:12 10° SSE visible
22 Feb 11.0 03:31:52 10° SW 03:38:13 18° S 03:44:37 10° SSE visible
22 Feb 10.9 05:39:51 10° SSW 05:47:27 23° SSE 05:54:58 10° ESE visible
22 Feb 9.7 07:44:28 10° SW 07:54:33 61° SE 08:04:19 10° ENE visible
22 Feb 9.0 22:53:08 10° NNW 23:02:42 66° NE 23:12:37 10° SE visible
23 Feb 10.1 00:59:12 10° W 01:08:14 39° SSW 01:17:32 10° SSE visible
23 Feb 11.0 03:09:57 10° SW 03:16:22 18° S 03:22:50 10° SSE visible
23 Feb 10.9 05:18:10 10° SSW 05:25:38 22° SSE 05:33:01 10° ESE visible
23 Feb 9.7 07:22:48 10° SW 07:32:51 58° SE 07:42:35 10° ENE visible
23 Feb 9.1 22:31:35 10° NNW 22:41:03 62° NE 22:50:53 10° SE visible
24 Feb 10.1 00:37:23 10° WNW 00:46:29 41° SW 00:55:53 10° SE visible
24 Feb 11.0 02:48:00 10° SW 02:54:30 18° S 03:01:04 10° SSE visible
24 Feb 10.9 04:56:29 10° SSW 05:03:48 21° SSE 05:11:04 10° ESE visible
24 Feb 9.7 07:01:10 10° SW 07:11:08 55° SE 07:20:51 10° ENE visible
24 Feb 9.2 22:10:04 10° NNW 22:19:25 58° NE 22:29:08 10° SE visible
25 Feb 10.0 00:15:35 10° WNW 00:24:45 43° SW 00:34:14 10° SE visible
25 Feb 11.0 02:26:05 10° SW 02:32:39 19° SSW 02:39:18 10° SSE visible
25 Feb 10.9 04:34:47 10° SSW 04:41:57 21° SSE 04:49:06 10° ESE visible
25 Feb 9.8 06:39:30 10° SW 06:49:25 52° SE 06:59:05 10° ENE visible
25 Feb 9.2 21:48:33 10° NNW 21:57:48 54° NE 22:07:24 10° SE visible
25 Feb 10.0 23:53:48 10° WNW 00:03:01 45° SW 00:12:35 10° SE visible
26 Feb 11.0 02:04:09 10° SW 02:10:48 19° SSW 02:17:33 10° SSE visible
26 Feb 10.9 04:13:04 10° SSW 04:20:07 20° SSE 04:27:08 10° ESE visible
26 Feb 9.8 06:17:50 10° SW 06:27:42 50° SE 06:37:19 10° ENE visible
26 Feb 9.3 08:23:13 10° WSW 08:32:49 48° NW 08:42:09 10° NNE visible
26 Feb 9.9 23:32:01 10° WNW 23:41:17 47° SW 23:50:55 10° SE visible
